FW5195 Weather Reports


time (UTC)temp
C
wind
direction
speed
KPH
gust
KPH
rain 1hr
cm
rain 24hr
cm
rain mn
cm
humidity
%
barometer
mb
20260510000023 23 233 1.6 11.3 0.00 0.00 0.00 72 1025.0
20260509234519 22 90 1.6 17.7 0.00 0.00 0.00 74 1025.0
20260509233023 22 114 0.0 12.9 0.00 0.00 0.00 75 1024.8
20260509231513 22 126 1.6 14.5 0.00 0.00 0.00 74 1024.7
20260509230017 21 106 0.0 9.7 0.00 0.00 0.00 76 1024.5
20260509224513 21 223 0.0 16.1 0.00 0.00 0.00 77 1024.4
20260509223009 21 258 0.0 9.7 0.00 0.00 0.00 78 1024.4
20260509221511 20 116 0.0 11.3 0.00 0.00 0.00 78 1024.2
20260509220002 20 152 0.0 11.3 0.00 0.00 0.00 79 1024.1
20260509214602 20 194 0.0 14.5 0.00 0.00 0.00 81 1023.9
20260509213054 18 201 0.0 4.8 0.00 0.00 0.00 84 1023.8
20260509211554 18 214 0.0 6.4 0.00 0.00 0.00 86 1023.5
20260509204548 16 225 0.0 0.0 0.00 0.00 0.00 91 1023.4
20260509203109 16 223 0.0 0.0 0.00 0.00 0.00 90 1023.2
20260509201545 16 223 0.0 0.0 0.00 0.00 0.00 89 1023.0
20260509194551 17 237 0.0 3.2 0.00 0.00 0.00 89 1022.8
20260509193056 16 233 0.0 0.0 0.00 0.00 0.00 90 1022.6
20260509191556 16 223 0.0 3.2 0.00 0.00 0.00 90 1022.5
20260509184535 15 236 0.0 1.6 0.00 0.00 0.00 90 1022.4
20260509183031 14 235 0.0 3.2 0.00 0.00 0.00 92 1022.3
20260509181531 13 221 0.0 0.0 0.00 0.00 0.00 92 1022.3
20260509174524 13 233 0.0 0.0 0.00 0.00 0.00 90 1022.0
20260509173023 13 233 0.0 0.0 0.00 0.00 0.00 90 1021.8
20260509171523 13 233 0.0 0.0 0.00 0.00 0.00 89 1021.8
20260509164554 13 233 0.0 0.0 0.00 0.00 0.00 88 1021.8
20260509163042 13 235 0.0 0.0 0.00 0.00 0.00 88 1021.8
20260509161545 13 236 0.0 0.0 0.00 0.00 0.00 88 1021.9
20260509154522 13 239 0.0 0.0 0.00 0.00 0.00 88 1022.1
20260509153017 13 188 0.0 0.0 0.00 0.00 0.00 88 1022.2
20260509151516 13 238 0.0 0.0 0.00 0.00 0.00 89 1022.2
20260509144526 13 244 0.0 0.0 0.00 0.00 0.00 89 1022.3
20260509143017 13 230 0.0 0.0 0.00 0.00 0.00 89 1022.5
20260509141515 13 235 0.0 0.0 0.00 0.00 0.00 89 1022.5
20260509134512 13 222 0.0 0.0 0.00 0.00 0.00 89 1022.6
20260509133014 13 219 0.0 0.0 0.00 0.00 0.00 89 1022.6
20260509131511 13 230 0.0 0.0 0.00 0.00 0.00 89 1022.7
20260509124512 13 233 0.0 0.0 0.00 0.00 0.00 89 1022.7
20260509123012 13 233 0.0 0.0 0.00 0.00 0.00 87 1022.6
20260509121511 13 233 0.0 0.0 0.00 0.00 0.00 86 1022.6
20260509114510 14 232 0.0 0.0 0.00 0.00 0.00 85 1022.5
20260509113011 15 228 0.0 0.0 0.00 0.00 0.00 85 1022.4
20260509111509 15 227 0.0 0.0 0.00 0.00 0.00 85 1022.6
20260509104509 15 219 0.0 0.0 0.00 0.00 0.00 85 1022.7
20260509103014 15 221 0.0 0.0 0.00 0.00 0.00 85 1022.7
20260509101508 15 221 0.0 0.0 0.00 0.00 0.00 85 1022.7
20260509094525 15 221 0.0 0.0 0.00 0.00 0.00 82 1022.4
20260509093023 16 221 0.0 0.0 0.00 0.00 0.00 82 1022.3
20260509091523 16 226 0.0 0.0 0.00 0.00 0.00 82 1022.2
20260509084559 17 226 0.0 0.0 0.00 0.00 0.00 79 1021.8
20260509083058 17 145 0.0 0.0 0.00 0.00 0.00 78 1021.7
20260509081603 17 145 0.0 0.0 0.00 0.00 0.00 76 1021.6
20260509074600 18 145 0.0 0.0 0.00 0.00 0.00 72 1021.2
20260509073100 19 145 0.0 0.0 0.00 0.00 0.00 69 1021.0
20260509071600 20 145 0.0 0.0 0.00 0.00 0.00 67 1020.9
20260509064527 21 100 0.0 4.8 0.00 0.00 0.00 61 1020.5
20260509063026 22 200 0.0 0.0 0.00 0.00 0.00 58 1020.3
20260509061526 23 149 0.0 1.6 0.00 0.00 0.00 57 1020.1
20260509054511 24 50 0.0 0.0 0.00 0.00 0.00 54 1019.9
20260509053013 23 41 0.0 4.8 0.00 0.00 0.00 56 1019.9
20260509051510 24 81 0.0 8.0 0.00 0.00 0.00 56 1019.9
20260509044603 24 220 0.0 3.2 0.00 0.00 0.00 55 1019.9
20260509043056 23 123 0.0 3.2 0.00 0.00 0.00 56 1019.9
20260509041555 23 81 0.0 12.9 0.00 0.00 0.00 55 1020.0
20260509034555 24 87 1.6 9.7 0.00 0.00 0.00 55 1020.0
20260509033054 24 202 0.0 3.2 0.00 0.00 0.00 55 1020.0
20260509031552 23 334 0.0 9.7 0.00 0.00 0.00 56 1020.0
20260509024546 23 308 0.0 3.2 0.00 0.00 0.00 56 1020.4
20260509023055 22 111 0.0 9.7 0.00 0.00 0.00 57 1020.5
20260509021544 22 116 0.0 3.2 0.00 0.00 0.00 58 1020.8
20260509014538 23 136 1.6 9.7 0.00 0.00 0.00 55 1021.1
20260509013038 23 86 1.6 8.0 0.00 0.00 0.00 56 1021.3
20260509011535 23 225 0.0 12.9 0.00 0.00 0.00 58 1021.3
20260509004539 22 88 0.0 8.0 0.00 0.00 0.00 58 1021.5
20260509003034 22 116 0.0 11.3 0.00 0.00 0.00 58 1021.6
20260509001530 21 109 0.0 11.3 0.00 0.00 0.00 59 1021.6